Regional Weather Roundup
Issued by NWS Newport/Morehead, NC

Current Version | Previous Version | Text Only | Print | Product List | Glossary On
Versions: 1 2 3 4 5 6 7 8 9 10 11 12 13 14 15 16 17 18 19 20 21 22 23 24 25 26 27 28 29 30 31 32 33 34 35 36 37 38 39 40 41 42 43 44 45 46 47 48 49 50
000
ASUS42 KMHX 231313
RWRMHX
WEATHER ROUNDUP FOR EASTERN NORTH CAROLINA
NATIONAL WEATHER SERVICE NEWPORT/MOREHEAD CITY NC
900 AM EDT SUN JUL 23 2017

NOTE: "FAIR" INDICATES FEW OR NO CLOUDS BELOW 12,000 FEET
WITH NO SIGNIFICANT WEATHER AND/OR OBSTRUCTIONS TO VISIBILITY

NCZ015>017-031-032-045>047-102-103-231400-
NORTH COAST

CITY           SKY/WX    TMP DP  RH WIND       PRES   REMARKS
EDENTON        MOSUNNY   84  76  77 SW12      29.86S
ELIZABETH CITY SUNNY     84  78  82 SW15      29.84R
KITTY HAWK     PTSUNNY   83  74  73 SW12G17   29.83S
MANTEO         PTSUNNY   83  75  77 W17       29.85S

$$

NCZ045>047-081-094-103-104-231400-
CENTRAL COAST

CITY           SKY/WX    TMP DP  RH WIND       PRES   REMARKS
FRISCO         SUNNY     80  75  84 SW16G23   29.89S

$$

NCZ095-097-098-100-101-231400-
SOUTHERN COAST

CITY           SKY/WX    TMP DP  RH WIND       PRES   REMARKS
BEAUFORT       SUNNY     84  79  85 SW20      29.92S
CEDAR ISLAND   NOT AVBL
JACKSONVILLE   SUNNY     84  78  82 SW10      29.91S
PINEY ISLAND   SUNNY    N/A N/A N/A SW18G29   29.90S
WILMINGTON     SUNNY     84  77  79 S12       29.93S


$$

NCZ011>013-027>030-043-044-078>080-089-090>093-098-231400-
COASTAL PLAIN

CITY           SKY/WX    TMP DP  RH WIND       PRES   REMARKS
AHOSKIE          N/A     82  76  83 S3        29.85R
CLINTON        SUNNY     81  76  85 SW6       29.91R
ELIZABETHTOWN  NOT AVBL
GOLDSBORO      NOT AVBL
GREENVILLE     MOSUNNY   82  75  78 SW10      29.90R
HAVELOCK       SUNNY     85  76  74 SW14G22   29.91F
KENANSVILLE    SUNNY     82  75  78 SW8       29.90S
KINSTON        MOSUNNY   84  73  70 SW13G18   29.89S
NEW BERN       SUNNY     84  76  76 SW14G20   29.90F
RICHLANDS      SUNNY     84  76  76 S16       29.91S
ROCKY MOUNT    SUNNY     84  77  79 SW13G20   29.87R
WASHINGTON     MOSUNNY   81  74  79 SW10G16   29.88R
WHITEVILLE     SUNNY     83  75  79 S9        29.93S

$$

AMZ130-135-150-152-154-156-158-170-250-252-270-ANZ085-086-088-633-658-670-231400-
MARINE OBSERVATIONS

STATION/POSITION TIME  TEMP    WIND        PRES    WAVE   SWELL
                       AIR SEA DIR/SP/G            HT/PER HT/PER
                 (UTC) (F)     (DEG/KT/KT) (MB)    (FT/S) (FT/S)
CHESAPEAKE LIGHT NOT AVBL
64 E VA BEACH    1250   80 79  230/ 19/ 21 1009.8    5/ 6   2/10
DUCK             1248   82 58  230/ 16/ 21 1010.0
2 E DUCK         1300      61                N/A     2/10
OREGON INLET     1242   83 83  220/ 18/ 22 1010.7
13E OREGON INLT  1248      79                N/A     4/ 5   2/ 9
HATTERAS CG      1248   79 76  220/ 12/ 19 1012.1
DIAMOND BUOY     1250   84 85  240/ 25/ 29 1012.1    5/ 6   2/ 9
CAPE LOOKOUT     1300   83     220/ 12/ 18 1013.1
BEAUFORT LAB     1248   83 78  220/  8/ 14 1012.6
30 SE NEW RVR IN 1208   81 81  240/ 17/ 23 1013.6
30 SE NEW RVR IN 1213      81                N/A     6/ 5   2/25
27 SE WRIGHTSVLE 1208   82 82  220/ 17/ 23 1013.6
5 SE WRIGHTSVLE  1208   81 79  220/ 12/ 16 1013.6
225 S CAPE HAT   1250   84 83  230/ 16/ 19 1017.0    5/ 6   2/10
41 SE CHARLESTON 1250   82 83  230/ 17/ 21 1015.0    4/ 5   2/10

$$



USA.gov is the U.S. government's official web portal to all federal, state and local government web resources and services.